Location: Caoba
(9.7667°N, 67.4833°W)
Time: 04:08:29
(UTC+00:00)

BlueWalker 3 - Visible Passes

Search period start: 18 January 2026 00:00
Search period end: 28 January 2026 00:00
Orbit: 451 x 463 km, 53.2° (Epoch: 17 January)

Date Brightness Start Highest point End Pass type
(mag) Time Alt. Az. Time Alt. Az. Time Alt. Az.
18 Jan 4.5 08:44:02 18° ESE 08:44:02 18° ESE 08:45:17 10° ESE visible
18 Jan 4.0 10:18:48 10° WSW 10:19:22 10° WSW 10:19:56 10° SW visible
19 Jan 3.8 09:44:36 15° SW 09:44:36 15° SW 09:46:16 10° SSW visible
20 Jan 4.4 09:11:20 12° S 09:11:20 12° S 09:11:38 10° S visible
